Temp
-11 -10 -10 -10 -10 -10 -9 -8 -6 -5 -4 -1 -0 1 1 7 7 9 9 9 9 10
-11 -11 -11 -10 -10 -10 -9 -8 -8 -6 -5 -3 -1 -0 -0 3 7 7 8 8 9 9
-11 -11 -11 -11 -11 -11 -10 -9 -8 -7 -6 -5 -3 -2 -0 1 3 6 8 8 9 9
-11 -11 -11 -11 -11 -11 -10 -10 -9 -8 -8 -7 -5 -3 -3 -0 2 3 6 8 8 9
-11 -11 -12 -11 -11 -11 -11 -10 -9 -8 -9 -7 -6 -4 -3 -2 1 1 3 6 8 8
-11 -11 -12 -11 -11 -11 -11 -10 -9 -9 -9 -8 -7 -5 -3 -2 -1 1 2 4 6 8
-11 -11 -11 -11 -11 -11 -11 -10 -9 -9 -9 -9 -8 -7 -5 -3 -2 -0 0 2 5 7
-12 -12 -11 -11 -11 -11 -11 -11 -9 -9 -8 -8 -8 -7 -6 -5 -3 -2 1 1 4 6
-12 -12 -11 -11 -11 -11 -11 -11 -10 -9 -8 -8 -8 -7 -6 -6 -4 -3 -2 1 3 6
-12 -11 -11 -11 -11 -11 -11 -11 -10 -9 -8 -9 -8 -7 -6 -5 -5 -4 -3 -1 2 4
-11 -11 -11 -11 -11 -11 -11 -11 -10 -9 -9 -9 -8 -7 -6 -5 -5 -4 -3 -2 2 4
-12 -12 -11 -11 -11 -11 -11 -11 -10 -9 -8 -8 -7 -6 -6 -5 -4 -4 -2 -1 -0 3
-11 -11 -11 -11 -11 -11 -11 -10 -10 -9 -8 -8 -7 -6 -5 -5 -4 -4 -2 -0 1 4
-11 -11 -11 -11 -11 -11 -11 -10 -9 -9 -8 -7 -6 -6 -5 -5 -4 -4 -2 -0 1 3
Height
1464 1459 1454 1450 1445 1440 1436 1433 1429 1426 1425 1423 1420 1420 1421 1424 1427 1435 1439 1441 1445 1450
1458 1454 1448 1445 1441 1436 1432 1429 1425 1422 1419 1418 1415 1414 1415 1410 1418 1422 1428 1433 1437 1442
1453 1449 1444 1439 1435 1431 1427 1425 1420 1417 1415 1412 1410 1408 1406 1406 1409 1413 1417 1422 1430 1434
1448 1443 1439 1434 1430 1426 1421 1418 1415 1412 1410 1407 1404 1404 1402 1402 1403 1405 1409 1415 1420 1425
1443 1437 1432 1428 1424 1420 1415 1412 1409 1406 1404 1401 1399 1397 1396 1395 1396 1395 1398 1405 1409 1416
1436 1431 1426 1422 1418 1413 1409 1405 1402 1400 1397 1395 1393 1389 1387 1385 1386 1392 1387 1393 1399 1406
1431 1425 1420 1415 1411 1408 1404 1399 1396 1394 1390 1388 1386 1383 1381 1379 1377 1378 1385 1378 1386 1393
1425 1419 1414 1409 1405 1401 1398 1394 1390 1386 1384 1381 1380 1377 1375 1373 1372 1370 1367 1376 1376 1382
1418 1413 1408 1404 1399 1395 1391 1387 1384 1380 1377 1374 1371 1369 1368 1368 1366 1364 1363 1359 1365 1371
1412 1406 1402 1397 1392 1388 1384 1381 1377 1373 1370 1367 1364 1362 1361 1360 1358 1355 1352 1355 1357 1364
1406 1400 1395 1390 1386 1381 1378 1374 1370 1367 1365 1361 1357 1355 1353 1352 1349 1347 1345 1344 1345 1351
1399 1393 1388 1383 1380 1376 1371 1367 1364 1360 1357 1354 1350 1348 1346 1344 1340 1336 1334 1333 1339 1341
1392 1387 1382 1378 1374 1370 1366 1362 1359 1355 1351 1347 1343 1342 1340 1337 1333 1326 1322 1325 1321 1326
1386 1381 1376 1372 1369 1365 1361 1358 1354 1351 1347 1344 1340 1337 1334 1331 1328 1323 1316 1312 1317 1313
Wind_Speed
24 25 25 23 27 28 26 26 27 27 27 27 28 29 27 36 27 37 37 43 42 38
25 25 27 26 25 27 26 26 26 28 29 28 28 30 33 25 39 31 29 40 44 42
27 27 27 27 27 26 26 26 28 27 26 28 27 28 32 30 30 34 35 28 46 41
35 31 28 27 26 26 27 26 26 27 25 27 27 27 29 33 34 32 34 36 38 43
37 33 29 27 26 26 26 26 26 27 25 24 27 27 29 30 39 34 35 35 34 43
35 35 32 30 27 26 26 26 26 25 25 23 26 28 29 32 34 44 34 39 33 41
34 33 33 32 29 28 26 26 26 25 25 24 25 27 27 29 32 35 42 36 43 29
32 32 31 31 30 28 27 27 26 25 25 25 25 27 25 25 29 34 42 47 43 51
31 30 30 30 30 30 29 27 25 25 24 25 24 25 24 24 26 29 35 41 46 48
30 30 30 30 30 30 28 27 26 24 24 25 25 25 23 23 25 26 33 40 46 52
30 30 31 30 29 28 27 27 24 23 24 25 26 24 20 22 24 26 31 41 44 53
32 32 30 29 28 28 27 24 24 24 25 25 26 19 17 19 21 26 29 34 45 50
32 31 30 29 28 26 24 23 23 24 24 24 21 17 15 15 21 23 23 31 38 41
29 27 27 25 23 23 22 21 23 23 21 19 15 14 14 13 18 17 16 19 28 31
Wind_Direction
316 313 311 309 308 305 309 305 304 302 297 290 280 271 271 224 230 217 232 229 229 226
315 312 310 307 304 302 303 303 300 298 298 295 284 271 274 253 225 230 223 230 225 222
316 312 309 306 303 301 299 300 299 297 297 294 290 280 268 268 252 236 223 227 229 228
317 315 310 306 302 300 298 298 298 297 294 293 292 283 276 258 262 253 234 226 230 228
313 314 310 306 304 302 299 297 297 295 291 292 291 285 278 266 249 262 248 228 224 230
311 312 311 308 304 302 300 298 296 294 291 288 290 286 278 274 257 251 258 237 227 229
307 307 306 306 305 304 301 298 296 293 290 286 289 286 281 273 268 255 254 254 234 226
305 304 304 303 305 304 300 295 296 294 292 288 285 286 282 277 266 259 250 255 240 230
306 303 303 302 302 302 300 298 295 295 295 292 286 286 278 272 269 265 256 251 244 233
307 305 302 300 301 301 301 301 296 298 298 296 290 288 277 272 270 271 258 248 245 239
306 302 302 301 301 300 300 299 299 299 300 298 294 291 276 278 273 278 262 250 243 234
307 304 303 300 301 300 301 301 300 304 306 303 300 288 291 286 288 288 265 249 244 232
313 307 302 300 299 300 301 301 304 307 308 309 303 297 303 298 303 298 267 247 248 239
319 311 306 301 301 302 304 307 307 308 312 318 315 311 314 305 310 312 277 249 233 236